Home > Weather > Mahón > Past weeks

Flag for Spain Weather for the Past 2 Weeks in Mahón, Menorca, Spain

Now
64 °F

Sunny.


Feels Like: 64 °F
Forecast: 52 / 65 °F
Wind: 21 mph from North

Location: Menorca / Mahon

Current Time: May 4, 2016 at 12:32:38 PM

Latest Report: May 4, 2016 at 11:30 AM


Visibility: 10 mi

Pressure: 30.12 "Hg

Humidity: 43%

Dew Point: 41 °F

Location of MahónLocation

Historic Weather in Mahón — Graph

°F

Mahón Temperature Yesterday

Maximum temperature yesterday: 68 °F (at 11:30 AM)
Minimum temperature yesterday: 54 °F (at 6:00 AM)
Average temperature yesterday: 62 °F

High & Low Weather Summary for the Past Weeks

 TemperatureHumidityPressure
High68 °F (Apr 20, 2:00 PM)100% (Apr 21, 5:30 AM)30.21 "Hg (Apr 21, 5:30 AM)
Low46 °F (May 1, 8:00 AM)27% (May 1, 2:30 PM)29.83 "Hg (Apr 28, 6:00 AM)
Average59 °F71%30.03 "Hg
* Reported Apr 19 11:00 AM — May 4 11:00 AM, Mahón, Weather by CustomWeather, © 2016

Note: Actual official high and low records may vary slightly from our data, if they occured in-between our weather recording intervals... More about our weather records

Advertising

Mahón Weather History for the Previous 24 Hours

Scroll right to see more
 ConditionsComfort  
Time TempWeatherWind HumidityBarometerVisibility
11:00 AM
Wed, May 4
64 °FPassing clouds.21 mph46%30.12 "HgN/A
10:00 AM63 °FPassing clouds.17 mph52%30.12 "HgN/A
9:30 AM61 °FPassing clouds.15 mph59%30.15 "HgN/A
9:00 AM61 °FPassing clouds.12 mph68%30.15 "HgN/A
8:30 AM59 °FPassing clouds.9 mph68%30.15 "HgN/A
8:00 AM57 °FPassing clouds.2 mph77%30.15 "HgN/A
7:30 AM55 °FPassing clouds.3 mph77%30.15 "HgN/A
7:00 AM54 °FClear.5 mph77%30.15 "Hg10 mi
6:30 AM54 °FPassing clouds.6 mph77%30.12 "HgN/A
6:00 AM54 °FClear.8 mph77%30.12 "Hg10 mi
5:30 AM52 °FClear.6 mph72%30.12 "Hg10 mi
5:00 AM54 °FClear.6 mph67%30.12 "Hg10 mi
12:30 AM54 °FClear.5 mph72%30.18 "Hg10 mi
12:00 AM54 °FClear.2 mph72%30.18 "Hg10 mi
11:30 PM
Tue, May 3
54 °FClear.3 mph77%30.18 "Hg10 mi
11:00 PM54 °FClear.3 mph82%30.18 "Hg10 mi
10:30 PM55 °FPassing clouds.2 mph77%30.18 "HgN/A
10:00 PM55 °FPassing clouds.3 mph77%30.18 "HgN/A
9:30 PM57 °FPassing clouds.6 mph77%30.18 "HgN/A
9:00 PM59 °FPassing clouds.5 mph72%30.18 "HgN/A
8:30 PM61 °FPassing clouds.6 mph63%30.18 "HgN/A
8:00 PM63 °FSunny.1 mph73%30.15 "Hg10 mi
7:30 PM64 °FPassing clouds.3 mph68%30.15 "HgN/A
7:00 PM64 °FPassing clouds.3 mph60%30.15 "HgN/A
6:30 PM64 °FPassing clouds.5 mph56%30.15 "HgN/A
6:00 PM66 °FPassing clouds.7 mph49%30.18 "HgN/A
5:30 PM66 °FPassing clouds.10 mph37%30.18 "HgN/A
5:00 PM68 °FPassing clouds.8 mph43%30.18 "HgN/A
4:30 PM66 °FPassing clouds.12 mph43%30.18 "HgN/A
4:00 PM68 °FPassing clouds.10 mph43%30.18 "HgN/A
3:30 PM68 °FPassing clouds.10 mph43%30.18 "HgN/A
3:00 PM68 °FPassing clouds.12 mph46%30.18 "HgN/A
2:30 PM66 °FPassing clouds.13 mph46%30.18 "HgN/A
2:00 PM68 °FPassing clouds.12 mph40%30.21 "HgN/A
1:30 PM68 °FPassing clouds.12 mph46%30.21 "HgN/A
1:00 PM66 °FPassing clouds.12 mph46%30.21 "HgN/A
12:30 PM66 °FPassing clouds.10 mph52%30.21 "HgN/A
12:00 PM66 °FPassing clouds.13 mph56%30.21 "HgN/A
Weather by CustomWeather, © 2016

See weather overviewHow to use our weather pages